Regional Weather Roundup
Issued by NWS

Home | Current Version | Previous Version | Graphics & Text | Print | Product List | Glossary On
Versions: 1 2 3 4 5 6 7 8 9 10 11 12 13 14 15 16 17 18 19 20 21 22 23 24 25 26 27 28 29 30 31 32 33 34 35 36 37 38 39 40 41 42 43 44 45 46 47 48 49 50
125
ASUS43 KBIS 141310
RWRND

NORTH DAKOTA REGIONAL WEATHER ROUNDUP
NATIONAL WEATHER SERVICE BISMARCK ND
700 AM CST THU DEC 14 2017

NOTE: "FAIR" INDICATES FEW OR NO CLOUDS BELOW 12,000 FEET WITH NO
SIGNIFICANT WEATHER AND/OR OBSTRUCTIONS TO VISIBILITY.


NDZ001>003-009>011-017-141400-
NORTHWEST NORTH DAKOTA

CITY           SKY/WX    TMP DP  RH WIND       PRES   REMARKS
WILLISTON      CLOUDY    33  26  75 N20G30    30.15R
MINOT          CLOUDY    32  26  78 NW16      30.04R
MINOT AFB      CLOUDY    32  27  80 NW12      30.04R
$$

NDZ018>021-031>035-040>046-141400-
SOUTHWEST NORTH DAKOTA

CITY           SKY/WX    TMP DP  RH WIND       PRES   REMARKS
BISMARCK       CLOUDY    34  30  85 NW13G22   30.02R
DICKINSON      CLOUDY    31  27  85 NW21G31   30.06R WCI  18
GARRISON         N/A     32  28  85 NW15      30.03R
HETTINGER ARPT CLOUDY    32  26  78 NW18G28   30.08R
$$

NDZ004>008-012>016-024-026-027-054-141400-
NORTHEAST NORTH DAKOTA

CITY           SKY/WX    TMP DP  RH WIND       PRES   REMARKS
GRAND FORKS    CLOUDY    20  18  92 W5        30.01R WCI  13
GRND FRKS AFB  CLOUDY    22  18  84 N7        30.01R WCI  14
DEVILS LAKE    FLURRIES  21  19  93 NE9       30.02R WCI  11
$$

NDZ022-023-025-028>030-036>039-047>053-141400-
SOUTHEAST NORTH DAKOTA

CITY           SKY/WX    TMP DP  RH WIND       PRES   REMARKS
FARGO          FLURRIES  20  17  88 W5        30.01S WCI  13
JAMESTOWN      FLURRIES  27  26  96 CALM      29.96S
$$





USA.gov is the U.S. government's official web portal to all federal, state and local government web resources and services.